BEIDOU-2 G6

Last updated on Tue Sep 22 2026 00:03:12 GMT+0000 (Coordinated Universal Time)

1 38953U 12059A 26264.43447043 -.00000176 00000+0 00000+0 0 9997 2 38953 4.6590 72.4215 0006782 324.1275 204.1478 1.00269535 50879
UTC large
Height (km)
Speed (km/s)
/
Latitude / Longitude
Inclination (degrees)
Orbital Period (minutes)
Azimuth
Elevation
Range (km)
Doppler Factor

Next 0 passes for location: London (51.5072 / 0.1276)

No passes found over London.
BEIDOU-2 G6